EHI
13 7 1 0 0 0 0 0 0 0 0 0 0 0 0 0 0 0 0 0 0 0 0 0 0 0 0 0 0 0 1 2 2 1 0 1 2 3 3 2 1 2 2 1 3 7 9 8 7
8 4 0 0 0 0 0 0 0 0 0 0 0 0 0 0 0 0 0 0 0 0 0 0 0 0 0 0 0 0 0 1 1 0 0 1 2 3 3 2 1 2 1 1 3 6 8 9 8
3 1 0 0 0 0 0 0 0 0 0 0 0 0 0 0 0 0 0 0 0 0 0 0 0 0 0 0 0 0 0 0 0 0 0 1 1 1 1 1 1 1 0 1 2 4 6 7 7
1 0 0 0 0 0 0 0 0 0 0 0 0 0 0 0 0 0 0 0 0 0 0 0 0 0 0 0 0 0 0 0 0 0 0 0 0 0 0 0 0 0 0 0 1 1 2 3 3
0 0 0 0 0 0 0 0 0 0 0 0 0 0 0 0 0 0 0 0 0 0 0 0 1 1 1 0 0 0 0 0 0 0 0 0 0 0 0 0 0 0 0 0 0 0 0 0 1
0 0 0 0 0 0 0 0 0 0 0 0 0 0 0 0 0 0 0 0 0 0 0 0 1 2 2 1 1 0 0 0 0 0 0 0 0 0 0 0 1 1 0 0 0 0 0 0 1
0 0 0 0 0 0 0 0 0 0 0 0 0 0 0 0 0 0 0 0 0 0 0 0 1 1 2 2 1 1 0 0 0 0 0 0 0 0 0 0 1 2 1 1 0 0 0 0 0
0 0 0 0 0 0 0 0 1 0 0 0 0 0 0 0 0 0 0 0 0 0 0 0 0 1 2 1 1 0 0 0 0 1 0 0 0 0 0 0 1 2 2 1 0 0 0 0 0
0 0 0 0 0 0 0 0 0 0 0 0 0 0 0 0 0 0 0 0 0 0 0 0 0 1 1 0 0 0 0 0 0 1 1 2 2 1 0 0 0 1 1 1 0 0 0 0 0
0 0 0 0 0 0 0 0 0 0 0 0 0 0 0 0 0 0 0 0 0 0 0 0 0 0 0 0 0 0 0 0 1 2 3 4 4 3 1 0 0 0 0 0 0 1 0 0 0
0 0 0 0 0 0 0 0 0 0 0 0 0 0 0 0 0 0 0 0 0 0 0 0 0 0 0 0 0 0 0 0 1 3 4 4 4 3 2 1 0 0 0 0 0 0 0 0 0
0 0 0 0 0 0 0 0 0 0 0 0 0 0 0 0 0 0 0 0 0 0 0 0 0 0 0 0 0 0 0 0 0 1 2 2 3 3 3 1 0 0 0 0 0 0 0 0 0
0 0 0 0 0 0 0 0 0 0 0 0 0 0 0 0 0 0 0 0 0 0 0 0 0 0 0 0 0 0 0 0 0 0 0 1 2 2 2 2 1 0 0 0 0 0 0 0 0
0 0 0 0 0 0 0 0 0 0 0 0 0 0 0 0 0 0 0 0 0 0 0 0 0 0 0 0 0 0 0 0 0 0 0 0 1 1 1 1 1 0 0 0 0 0 0 0 0
0 0 0 0 0 0 0 0 0 0 0 0 0 0 0 0 0 0 0 0 0 0 0 0 0 0 0 0 0 0 0 0 0 0 0 0 0 0 0 0 0 0 0 0 0 0 0 0 0
0 0 0 0 0 0 0 0 0 0 0 0 0 0 0 0 0 0 0 0 0 0 0 0 0 0 0 0 0 0 0 0 0 0 0 0 0 0 0 0 0 0 0 0 0 0 0 0 0
0 0 0 0 0 0 0 0 0 0 0 0 0 0 0 0 0 0 0 0 0 0 0 0 0 0 0 0 0 0 0 0 0 0 0 0 0 0 0 0 0 0 0 0 0 0 0 0 0
0 0 0 0 0 0 0 0 0 0 0 0 0 0 0 0 0 0 0 0 0 0 0 0 0 0 0 0 0 0 0 0 0 0 0 0 0 0 0 0 0 0 0 0 0 0 0 0 0
0 0 0 0 0 0 0 0 0 0 0 0 0 0 0 0 0 0 0 0 0 0 0 0 0 0 0 0 0 0 0 0 0 0 0 0 0 0 0 0 0 0 0 0 0 0 0 0 0
0 0 0 0 0 0 0 0 0 0 0 0 0 0 0 0 0 0 0 0 0 0 0 0 0 0 0 0 0 0 0 0 0 0 0 0 0 0 0 0 0 0 0 0 0 0 0 0 0
0 0 0 0 0 0 0 0 0 0 0 0 0 0 0 0 0 0 0 0 0 0 0 0 0 0 0 0 0 0 0 0 0 0 0 0 0 0 0 0 0 0 0 0 0 0 0 0 0
0 0 0 0 0 0 0 0 0 0 0 0 0 0 0 0 0 0 0 0 0 0 0 0 0 0 0 0 0 0 0 0 0 0 0 0 0 0 0 0 0 0 0 0 0 0 0 0 0
0 0 0 0 0 0 0 0 0 0 0 0 0 0 0 0 0 0 0 0 0 0 0 0 0 0 0 0 0 0 0 0 0 0 0 0 0 0 0 0 0 0 0 0 0 0 0 0 0
0 0 0 0 0 0 0 0 0 0 0 0 0 0 0 0 0 0 0 0 0 0 0 0 0 0 0 0 0 0 0 0 0 0 0 0 0 0 0 0 0 0 0 0 0 0 0 0 0
0 0 0 0 0 0 0 0 0 0 0 0 0 0 0 0 0 0 0 0 0 0 0 0 0 0 0 0 0 0 0 0 0 0 0 0 0 0 0 0 0 0 0 0 0 0 0 0 0
0 0 0 0 0 0 0 0 0 0 0 0 0 0 0 0 0 0 0 0 0 0 0 0 0 0 0 0 0 0 0 0 0 0 0 0 0 0 0 0 0 0 0 0 0 0 0 0 0
0 0 0 0 0 0 0 0 0 0 0 0 0 0 0 0 0 0 0 0 0 0 0 0 0 0 0 0 0 0 0 0 0 0 0 0 0 0 0 0 0 0 0 0 0 0 0 0 0
0 0 0 0 0 0 0 0 0 0 0 0 0 0 0 0 0 0 0 0 0 0 0 0 0 0 0 0 0 0 0 0 0 0 0 0 0 0 0 0 0 0 0 0 0 0 0 0 0
0 0 0 0 0 0 0 0 0 0 0 0 0 0 0 0 0 0 0 0 0 0 0 0 0 0 0 0 0 0 0 0 0 0 0 0 0 0 0 0 0 0 0 0 0 0 0 0 0
0 0 0 0 0 0 0 0 0 0 0 0 0 0 0 0 0 0 0 0 0 0 0 0 0 0 0 0 0 0 0 0 0 0 0 0 0 0 0 0 0 0 0 0 0 0 0 0 0
Wind_Speed
7 5 3 2 4 5 3 5 3 3 4 3 5 7 6 5 2 1 1 4 5 5 4 7 10 10 10 9 9 8 8 8 7 8 8 8 7 7 7 6 6 6 5 5 5 5 5 5 5
5 4 2 4 5 4 4 5 5 4 2 2 5 6 6 5 3 2 1 3 5 6 4 5 9 9 9 9 8 8 8 7 7 7 7 7 7 6 6 6 6 5 5 5 4 4 4 4 4
6 2 3 4 4 2 2 4 3 5 8 5 4 5 5 5 4 1 1 4 5 4 4 5 9 8 8 8 8 8 7 8 8 7 7 7 6 6 6 5 5 5 4 4 4 3 3 3 3
3 3 4 5 5 2 2 3 4 4 6 9 4 5 5 6 6 2 3 5 4 3 3 3 8 8 8 8 8 8 8 8 8 8 7 7 6 6 6 5 5 5 4 4 3 3 3 2 2
3 4 5 4 3 2 3 5 5 5 5 7 5 5 4 8 9 7 5 3 2 1 1 2 6 7 8 9 9 9 9 9 8 8 8 7 7 7 6 6 6 5 4 4 3 3 3 2 1
4 4 5 2 2 1 2 4 4 6 5 6 6 4 4 7 10 8 6 6 5 4 3 3 2 5 7 8 9 10 10 10 9 9 9 8 8 8 7 7 6 6 5 5 4 4 3 3 1
4 4 4 3 2 1 1 3 4 4 6 7 6 4 3 7 8 7 7 8 8 7 6 5 5 4 5 7 8 9 10 10 10 10 10 9 9 9 8 8 7 7 6 6 5 5 4 3 3
4 5 4 2 3 1 2 3 4 6 4 5 6 5 3 5 5 6 7 8 7 7 7 6 6 5 5 5 7 9 10 11 11 11 11 11 10 10 10 9 8 8 8 7 7 6 5 4 4
4 6 2 3 4 2 2 3 4 4 5 5 6 4 3 4 5 7 7 7 7 7 6 5 5 5 5 5 6 7 8 9 9 9 11 10 5 5 6 8 9 10 9 9 8 7 6 5 3
5 4 2 1 3 5 3 4 3 3 5 5 5 6 5 6 6 8 7 7 6 6 6 4 5 5 4 4 4 4 4 4 4 3 5 4 4 4 6 7 11 11 11 10 9 9 7 4 1
4 4 3 3 4 5 4 3 2 4 4 2 2 3 5 6 7 7 6 4 4 4 5 5 5 5 4 3 3 2 2 3 3 3 4 4 3 3 4 3 5 6 8 5 5 5 2 2 2
6 5 4 4 4 4 5 5 4 3 3 2 2 2 4 6 5 5 4 4 4 4 5 5 5 4 4 4 3 2 2 2 2 3 3 3 3 3 4 3 3 3 2 3 3 2 3 3 3
5 4 5 7 9 7 7 5 5 3 2 3 3 4 4 4 3 3 3 3 4 5 5 6 5 5 4 4 4 3 3 3 3 3 2 3 3 4 4 3 3 4 3 3 4 4 4 4 3
5 7 7 6 5 3 6 3 3 2 2 3 4 3 3 3 3 3 4 4 5 5 6 6 6 5 4 4 4 4 4 3 3 3 3 4 3 3 3 4 4 4 4 4 4 5 4 3 3
6 7 5 2 3 3 4 4 1 2 4 4 3 2 3 3 3 3 3 4 4 5 6 6 6 5 5 5 5 4 4 4 3 3 4 4 4 4 3 4 4 4 4 4 3 4 3 3 3
5 5 2 2 2 2 2 1 1 3 5 3 2 2 2 3 3 3 4 4 4 5 6 6 7 7 6 5 5 4 4 4 3 3 3 4 5 5 4 4 4 4 3 3 3 3 3 3 3
2 2 2 2 3 2 3 3 2 2 4 2 1 1 2 3 4 4 5 5 5 5 6 6 7 7 7 7 5 5 4 4 3 3 3 4 5 4 4 4 4 4 3 4 4 3 3 3 3
4 3 2 3 3 3 2 2 1 2 3 2 1 1 2 4 5 5 5 5 5 5 6 6 6 6 7 5 5 4 4 3 3 3 4 4 4 4 4 4 4 4 3 4 4 4 3 2 2
4 4 2 1 2 3 2 2 2 2 2 2 2 2 3 5 5 5 5 5 5 6 6 6 7 6 5 4 4 4 4 4 4 3 4 4 4 4 3 3 3 4 4 5 6 4 4 3 2
5 4 2 2 3 2 1 2 2 2 3 3 3 3 4 5 6 6 6 5 5 6 6 7 7 7 6 4 4 3 4 4 4 4 4 4 4 4 4 4 4 4 4 5 6 5 4 3 4
3 3 3 3 3 3 2 4 3 2 1 2 3 3 4 5 6 6 6 6 6 6 7 7 7 7 6 6 4 4 3 3 3 4 4 4 5 4 4 4 4 4 5 5 6 7 7 5 4
0 0 2 4 3 1 1 4 6 3 3 4 4 4 5 6 5 6 6 7 7 6 6 6 6 7 6 6 5 5 4 4 4 4 4 6 5 5 4 4 5 5 4 5 6 7 6 6 5
2 3 3 2 3 1 1 1 7 1 4 7 6 6 6 6 6 6 6 7 6 6 6 6 6 6 6 6 5 5 5 5 5 5 6 5 4 4 5 4 4 4 4 5 5 5 6 5 6
4 6 6 5 5 2 2 3 7 4 6 5 4 5 6 6 6 6 6 5 6 6 5 5 6 6 6 7 6 6 7 7 7 7 6 5 4 3 4 4 4 4 4 5 6 6 7 6 6
6 6 5 5 4 4 2 2 8 5 6 5 5 6 6 5 5 6 7 6 6 7 6 6 6 6 7 7 7 7 7 7 6 6 6 5 4 3 4 4 4 4 4 5 5 6 6 7 7
3 6 6 2 3 5 3 4 7 4 3 3 4 4 5 5 5 6 6 6 6 6 6 6 6 6 6 6 7 6 7 5 4 5 5 5 4 4 5 5 4 4 4 4 4 5 6 6 7
3 3 4 6 1 3 6 7 8 1 3 3 4 5 6 6 6 6 6 5 5 6 5 5 5 5 6 6 6 6 7 6 6 6 5 4 4 5 5 5 4 4 3 3 3 3 4 5 6
3 7 4 4 2 3 7 5 5 5 7 6 6 6 7 6 6 6 5 5 5 4 4 4 4 4 5 5 5 5 6 6 6 6 7 7 6 6 6 6 5 4 3 3 2 2 3 4 4
3 4 5 4 4 4 4 9 7 6 6 7 8 7 7 7 7 6 5 5 5 4 4 4 4 4 4 5 5 5 6 6 6 6 7 7 6 6 6 6 5 4 3 3 2 2 2 3 4
2 4 6 4 2 3 3 10 6 6 6 6 7 7 6 6 6 5 5 5 4 4 4 4 4 4 4 4 4 5 5 6 6 6 7 7 7 7 6 6 6 5 4 3 2 2 2 2 3
Wind_Direction
154 130 109 73 52 47 18 341 350 33 56 44 52 68 78 63 61 66 333 130 134 141 156 165 169 170 169 169 168 164 161 159 158 156 152 150 147 146 146 145 142 138 136 133 130 126 119 108 98
129 122 83 60 70 51 355 348 22 31 98 113 54 57 64 56 44 64 113 148 139 144 146 161 172 172 175 176 174 172 169 169 168 166 164 161 158 156 156 155 153 150 147 143 139 134 129 116 104
134 109 87 66 67 90 10 355 28 45 40 42 57 47 55 31 1 318 214 148 138 145 146 170 175 175 178 181 180 179 179 179 179 176 174 172 170 169 169 167 164 163 161 158 151 144 134 124 111
120 63 58 66 63 21 4 344 344 6 30 26 53 57 60 25 346 335 103 128 139 145 150 186 183 183 186 188 190 191 191 191 190 188 187 186 187 188 185 181 178 177 174 174 166 166 158 143 123
73 80 65 57 52 38 19 1 19 29 38 19 34 64 42 4 13 39 59 76 94 124 158 210 202 200 200 201 202 201 201 201 201 201 200 200 201 201 199 200 197 192 191 193 190 196 194 183 155
65 71 81 94 92 59 23 1 11 32 31 17 20 65 58 7 20 23 43 46 38 43 40 9 280 241 228 220 217 214 212 211 211 211 212 212 212 211 212 214 211 207 208 209 208 215 221 223 222
108 90 108 133 131 94 62 37 29 15 33 16 358 60 50 13 12 24 40 49 45 37 34 13 359 336 295 264 245 234 227 224 222 220 221 221 221 220 220 221 222 221 220 221 221 223 231 239 244
125 98 95 130 142 117 21 67 51 31 39 18 21 51 23 351 4 34 45 46 47 38 26 13 1 356 347 325 296 268 251 239 233 231 228 227 229 229 228 225 228 229 228 229 229 229 234 244 251
90 79 125 178 164 139 35 88 68 51 61 48 46 50 31 10 30 41 41 35 33 29 16 8 357 350 343 330 321 302 282 266 252 244 241 234 230 234 235 233 231 235 236 236 235 234 236 240 254
75 103 150 125 138 130 91 76 94 79 55 53 55 43 39 39 43 44 39 28 21 11 359 360 349 339 334 330 329 323 312 296 277 258 248 234 217 221 230 237 240 239 239 240 238 237 236 233 206
76 114 119 84 106 116 104 82 56 109 67 56 70 30 31 46 45 42 32 18 3 348 345 343 336 332 329 318 318 315 311 307 289 274 260 246 228 224 230 226 248 250 248 241 243 243 217 185 189
86 61 89 113 104 93 106 112 83 70 109 103 96 57 46 45 36 28 16 1 349 348 341 335 333 331 328 324 316 303 308 305 297 290 283 266 244 226 221 221 223 228 231 223 215 207 207 204 205
84 91 63 85 84 84 88 85 99 78 84 76 75 62 56 49 29 14 4 358 353 345 337 334 331 331 328 327 319 321 307 299 294 289 283 269 256 242 229 230 222 223 216 212 211 205 207 209 211
97 95 95 80 79 79 96 83 88 107 97 81 71 58 44 33 13 9 5 355 346 336 330 326 326 328 329 322 311 303 298 293 292 288 277 269 263 260 239 236 231 228 220 212 209 203 203 208 205
97 89 73 69 84 120 105 61 56 141 109 88 63 42 31 15 10 1 343 333 328 325 325 327 325 339 332 320 309 306 296 296 291 283 278 272 259 254 249 238 231 227 222 212 203 202 195 205 209
86 92 110 213 146 151 122 165 198 135 117 100 55 31 16 349 343 337 333 328 327 326 326 325 334 335 328 322 312 302 294 292 285 282 278 274 268 256 243 238 235 224 211 204 198 197 197 209 211
80 140 192 191 178 147 154 188 196 137 130 127 73 5 338 332 331 325 324 322 323 321 321 323 327 328 325 321 314 305 299 292 287 284 279 274 269 262 251 240 233 220 208 203 210 197 190 201 213
199 192 192 198 178 136 152 182 162 139 145 161 207 289 308 314 303 306 314 317 321 323 324 323 326 328 326 322 319 314 311 304 298 292 286 282 274 267 255 248 235 218 212 209 204 200 190 195 202
149 150 159 169 130 132 170 184 199 170 167 195 234 272 294 294 295 306 312 320 327 330 331 326 327 326 333 332 329 324 319 312 308 299 292 291 287 277 259 256 240 217 216 217 204 193 191 193 165
99 118 119 72 59 100 129 263 247 210 212 218 227 251 278 297 310 314 315 320 322 321 324 324 326 324 327 321 308 292 290 292 287 294 303 296 291 283 271 249 243 228 221 220 208 191 179 187 172
74 145 164 150 67 57 70 314 255 247 228 231 238 253 277 284 295 306 312 311 317 321 322 325 323 323 322 324 319 316 310 309 316 317 311 304 300 289 273 260 244 233 223 223 214 200 188 186 185
148 238 144 134 113 305 121 295 286 249 265 258 256 269 279 287 293 300 307 311 314 313 317 322 324 323 326 331 332 333 326 316 302 301 295 298 294 292 283 267 249 236 226 226 222 209 201 183 185
140 58 83 102 124 47 22 228 289 309 264 261 255 258 270 279 286 296 301 300 307 313 318 322 328 329 332 337 334 330 324 308 304 305 303 303 299 295 293 280 259 243 233 229 224 212 204 196 188
106 69 55 50 69 354 245 184 282 240 231 253 246 251 269 280 292 299 301 308 311 318 324 329 334 330 335 339 340 338 329 324 325 324 321 315 305 299 303 298 277 255 242 235 225 214 208 206 198
64 75 31 5 10 268 269 214 255 257 231 226 233 249 269 281 289 296 303 310 313 319 323 327 332 328 333 338 340 338 333 329 326 324 322 321 316 310 309 304 294 275 254 242 229 218 213 207 201
78 119 140 196 250 291 317 252 259 267 251 234 236 254 278 285 284 286 288 293 303 311 320 325 327 324 329 335 334 335 338 335 330 327 324 322 315 305 311 306 295 288 279 260 234 222 218 210 208
111 96 150 129 169 297 295 292 304 258 271 258 261 271 275 279 282 284 290 295 300 305 310 316 320 323 329 334 333 335 341 343 341 338 337 333 327 321 324 320 311 299 296 288 256 232 223 212 210
102 138 93 98 105 307 304 292 269 270 258 257 256 258 265 277 282 287 290 293 296 296 302 316 321 321 325 334 338 342 341 343 342 345 347 343 338 335 333 331 325 317 305 295 274 251 236 216 211
104 83 96 102 141 154 298 281 233 234 240 239 245 247 254 267 275 278 282 288 295 303 308 313 320 324 328 333 336 343 342 343 346 347 344 342 338 339 341 339 340 336 332 323 293 266 240 223 218
161 153 143 140 201 165 197 270 266 246 248 236 245 252 255 264 269 272 278 291 300 304 307 305 306 314 316 324 335 339 339 342 345 342 339 341 342 341 341 342 347 346 343 337 327 299 269 233 223